星链-30323 (STARLINK-30323 )

导读

STARLINK-30323是美国SpaceX公司星链(Starlink)星座中的第二代低轨通信卫星,于2023年8月17日发射升空,运行在约500公里左右的近地轨道。它采用平板设计,搭载相控阵天线与氪霍尔推进器,配备Ku/Ka波段通信载荷与光学星间链路,具备自主避碰能力,旨在为全球提供高速低延迟宽带互联网服务,寿命末期将主动离轨再入大气层销毁。

Basic Information
目录编号:
57634
目录名称:
STARLINK-30323
国际标识:
2023-122C
轨道中心:
EARTH
卫星名称:
星链-30323
卫星全名:
星链-30323 (STARLINK-30323 )
卫星状态:
在轨 (已飞行1114 天)
发射日期:
2023-08-17 UTC
国别 :
美国 (US)
星等 :
--
Orbit Information
数据来源 国际轨道数据 AOE轨道数据
星历时间 2026-09-04T10:21:02+0800
10小时前
查看轨道信息
2026-09-03T22:00:00+0800
23小时前
查看轨道信息
半长轴 6861.179km 6861.202km
偏心率 0.0001389 0.0001327
轨道倾角 42.998° 43.001°
近地点辐角 267.406° 250.032°
升交点赤经 153.789° 156.702°
平近点角 92.663° 156.722°
近地点 482.088km 482.154km
远地点 483.996km 483.976km
周期 94.267分钟 94.267分钟
每日圈数 15.275827 15.275749
Detailed Information
固有亮度:
5
最大亮度:
0.3
卫星平台:
Starlink v2.0 mini
覆盖范围:
全球
运营商:
太空探索技术公司
运营商所在国:
美国
制造商(研发单位):
太空探索技术公司
制造商所在国:
美国
使用方式:
暂无
Satellite Introduction
星链(Starlink)计划是由太空探索技术公司(SpaceX)提出的一个巨型低轨卫星互联网星座项目,计划在2019年至2024年间在太空搭建由约1.2万颗卫星组成的“星链”网络,其中1584颗将部署在地球上空550千米处的近地轨道,并从2020年开始工作。该卫星仍在工作。
2D Orbit Map
3D Orbit Map
Orbit Altitude Analysis Chart
Orbit Inclination Analysis Chart
Orbit Comprehensive Analysis Chart
View Comprehensive Chart
Conjunction Data List
Event ID Objects TCA Miss Dist (km) Collision Risk Probability Collision Risk Index (CRI) Action
CDM_260906-204405-763406-764521
2026-09-06T
20:44:52+0000
0.537 km
远距离
8.979464E-5 中风险 0.74
CDM_260901-002005-763406-216021
2026-09-01T
00:20:03+0000
0.663 km
远距离
5.779564E-5 中风险 0.7
CDM_260906-120705-763406-764521
2026-09-06T
12:07:02+0000
0.856 km
远距离
2.165106E-5 中风险 0.62
CDM_260827-213005-763406-197023
2026-08-27T
21:30:53+0000
0.984 km
远距离
1.841578E-5 中风险 0.6
CDM_260901-054905-763406-216021
2026-09-01T
05:49:35+0000
1.301 km
极远距离
6.135018E-6 低风险 0.51
CDM_260906-134105-763406-764521
2026-09-06T
13:41:11+0000
1.408 km
极远距离
4.001705E-6 低风险 0.47
CDM_260831-223504-583505-763421
2026-08-31T
22:35:11+0000
1.753 km
极远距离
2.246101E-6 低风险 0.42
CDM_260827-190405-763406-764521
2026-08-27T
19:04:49+0000
1.929 km
极远距离
1.608384E-6 低风险 0.39
CDM_260906-191005-763406-764521
2026-09-06T
19:10:43+0000
2.179 km
极远距离
1.218082E-6 低风险 0.37
CDM_260906-221905-763406-764521
2026-09-06T
22:19:01+0000
2.902 km
极远距离
7.652115E-7 极低风险 0.33